OAS098 SCEL-SKBO

Flight info

Callsign OAS098
Flight time N/A
Altitude 36000
Route DONTI5B DONTI UQ802 SIRAM UL300 ROLUS UN420 ORBAB UM779 GIR GIR5E
Aircraft B77W/H-SDE1E2E3FGHIJ2J3J4J5M1RWXY/LB1D1

Departure

Time N/A
Airport Comodoro Arturo Merino Benítez International Airport (SCEL)

Arrival

Time 2026-05-04 21:27
Airport El Dorado International Airport (SKBO)
Time Latitude Longitude Altitude Speed Heading
2026-05-04 19:50 -8.74732 -72.33587 36003 ft 615 kts 350°
2026-05-04 19:51 -8.66339 -72.35302 36001 ft 615 kts 350°
2026-05-04 19:51 -8.57950 -72.37013 36002 ft 615 kts 350°
2026-05-04 19:52 -8.49555 -72.38728 36003 ft 615 kts 350°
2026-05-04 19:52 -8.41170 -72.40443 36000 ft 615 kts 350°
2026-05-04 19:53 -8.32782 -72.42157 36005 ft 615 kts 350°
2026-05-04 19:53 -8.24383 -72.43873 36000 ft 615 kts 350°
2026-05-04 19:54 -8.16000 -72.45585 35999 ft 615 kts 350°
2026-05-04 19:54 -8.07613 -72.47296 35999 ft 615 kts 350°
2026-05-04 19:55 -7.99219 -72.49008 36001 ft 615 kts 350°
2026-05-04 19:55 -7.90822 -72.50721 36004 ft 615 kts 350°
2026-05-04 19:56 -7.82438 -72.52430 36005 ft 615 kts 350°
2026-05-04 19:56 -7.74056 -72.54138 35994 ft 615 kts 350°
2026-05-04 19:57 -7.65670 -72.55833 36003 ft 615 kts 350°
2026-05-04 19:57 -7.57273 -72.57497 36001 ft 615 kts 351°
2026-05-04 19:58 -7.50290 -72.58876 35998 ft 615 kts 351°
2026-05-04 19:58 -7.41891 -72.60540 36001 ft 615 kts 350°
2026-05-04 19:59 -7.33496 -72.62208 36003 ft 615 kts 350°
2026-05-04 19:59 -7.25095 -72.63876 35999 ft 615 kts 350°
2026-05-04 20:00 -7.16702 -72.65542 36000 ft 615 kts 350°
2026-05-04 20:00 -7.06893 -72.67487 36000 ft 615 kts 350°
2026-05-04 20:01 -6.99916 -72.68870 35997 ft 615 kts 350°
2026-05-04 20:01 -6.91530 -72.70532 36000 ft 615 kts 350°
2026-05-04 20:02 -6.83138 -72.72194 36005 ft 614 kts 350°
2026-05-04 20:02 -6.74751 -72.73856 36006 ft 614 kts 350°
2026-05-04 20:03 -6.66359 -72.75517 36002 ft 614 kts 350°
2026-05-04 20:03 -6.57961 -72.77179 36000 ft 614 kts 350°
2026-05-04 20:04 -6.49626 -72.78828 36006 ft 615 kts 350°
2026-05-04 20:04 -6.41177 -72.80498 35997 ft 615 kts 351°
2026-05-04 20:05 -6.32783 -72.82158 36004 ft 615 kts 351°
2026-05-04 20:05 -6.24445 -72.83806 36005 ft 615 kts 351°
2026-05-04 20:06 -6.16054 -72.85464 35998 ft 615 kts 350°
2026-05-04 20:06 -6.07654 -72.87123 35998 ft 615 kts 350°
2026-05-04 20:07 -5.99261 -72.88780 35998 ft 615 kts 350°
2026-05-04 20:07 -5.90868 -72.90437 36001 ft 615 kts 351°
2026-05-04 20:08 -5.82484 -72.92091 36000 ft 614 kts 351°
2026-05-04 20:08 -5.74092 -72.93747 36004 ft 614 kts 351°
2026-05-04 20:09 -5.65703 -72.95402 36001 ft 615 kts 351°
2026-05-04 20:09 -5.57308 -72.97051 36005 ft 614 kts 351°
2026-05-04 20:10 -5.48916 -72.98690 35999 ft 614 kts 351°
2026-05-04 20:10 -5.40521 -73.00330 35994 ft 614 kts 351°
2026-05-04 20:11 -5.32132 -73.01971 36003 ft 614 kts 351°
2026-05-04 20:11 -5.23745 -73.03612 36007 ft 614 kts 351°
2026-05-04 20:12 -5.15349 -73.05253 36003 ft 614 kts 351°
2026-05-04 20:12 -5.06963 -73.06893 36002 ft 614 kts 351°
2026-05-04 20:13 -4.98568 -73.08533 36000 ft 614 kts 351°
2026-05-04 20:13 -4.90179 -73.10172 36006 ft 614 kts 351°
2026-05-04 20:14 -4.81788 -73.11811 35997 ft 614 kts 351°
2026-05-04 20:14 -4.73401 -73.13449 36005 ft 614 kts 351°
2026-05-04 20:15 -4.65011 -73.15087 35998 ft 614 kts 351°
2026-05-04 20:15 -4.56621 -73.16725 36005 ft 614 kts 351°
2026-05-04 20:16 -4.48226 -73.18363 35998 ft 614 kts 351°
2026-05-04 20:16 -4.39850 -73.19996 36001 ft 614 kts 351°
2026-05-04 20:17 -4.31443 -73.21636 36000 ft 614 kts 351°
2026-05-04 20:17 -4.23052 -73.23273 36000 ft 614 kts 351°
2026-05-04 20:18 -4.14661 -73.24909 36004 ft 614 kts 351°
2026-05-04 20:18 -4.06275 -73.26543 36004 ft 614 kts 351°
2026-05-04 20:19 -3.97948 -73.28166 35998 ft 614 kts 351°
2026-05-04 20:19 -3.89567 -73.29799 36002 ft 614 kts 351°
2026-05-04 20:20 -3.81176 -73.31434 36003 ft 614 kts 351°
2026-05-04 20:20 -3.72743 -73.32678 36009 ft 612 kts 356°
2026-05-04 20:21 -3.64285 -73.33611 35997 ft 612 kts 356°
2026-05-04 20:21 -3.51583 -73.35012 35999 ft 612 kts 356°
2026-05-04 20:22 -3.43130 -73.35994 35999 ft 612 kts 356°
2026-05-04 20:22 -3.34658 -73.36987 36000 ft 612 kts 356°
2026-05-04 20:23 -3.26184 -73.37977 36000 ft 613 kts 356°
2026-05-04 20:23 -3.17722 -73.38960 36003 ft 613 kts 356°
2026-05-04 20:24 -3.09246 -73.39944 36000 ft 613 kts 356°
2026-05-04 20:24 -3.00777 -73.40927 36002 ft 613 kts 356°
2026-05-04 20:25 -2.92304 -73.41911 35998 ft 613 kts 356°
2026-05-04 20:25 -2.83846 -73.42894 36003 ft 612 kts 356°
2026-05-04 20:26 -2.75369 -73.43878 36000 ft 612 kts 356°
2026-05-04 20:26 -2.66909 -73.44860 36004 ft 612 kts 356°
2026-05-04 20:27 -2.58443 -73.45843 36004 ft 612 kts 356°
2026-05-04 20:27 -2.49982 -73.46825 36001 ft 612 kts 356°
2026-05-04 20:28 -2.41515 -73.47808 36002 ft 612 kts 356°
2026-05-04 20:28 -2.33059 -73.48789 36005 ft 612 kts 356°
2026-05-04 20:29 -2.24587 -73.49772 35997 ft 613 kts 356°
2026-05-04 20:29 -2.16120 -73.50754 36000 ft 613 kts 356°
2026-05-04 20:30 -2.07651 -73.51737 36003 ft 613 kts 356°
2026-05-04 20:30 -1.99179 -73.52720 36001 ft 613 kts 356°
2026-05-04 20:31 -1.90714 -73.53701 35999 ft 613 kts 356°
2026-05-04 20:31 -1.86480 -73.54192 35840 ft 612 kts 356°
2026-05-04 20:31 -1.82258 -73.54682 35378 ft 612 kts 356°
2026-05-04 20:32 -1.78023 -73.55173 35063 ft 613 kts 356°
2026-05-04 20:32 -1.73774 -73.55665 35012 ft 615 kts 356°
2026-05-04 20:32 -1.65258 -73.56652 35014 ft 616 kts 356°
2026-05-04 20:33 -1.56749 -73.57640 35002 ft 615 kts 356°
2026-05-04 20:33 -1.48258 -73.58625 35001 ft 613 kts 356°
2026-05-04 20:34 -1.39788 -73.59606 35000 ft 613 kts 356°
2026-05-04 20:34 -1.31373 -73.60582 34994 ft 612 kts 356°
2026-05-04 20:35 -1.22916 -73.61562 35000 ft 612 kts 356°
2026-05-04 20:35 -1.14548 -73.63233 35006 ft 615 kts 343°
2026-05-04 20:36 -1.06606 -73.66409 35006 ft 615 kts 330°
2026-05-04 20:36 -0.99265 -73.70761 35007 ft 614 kts 326°
2026-05-04 20:37 -0.92013 -73.75229 35006 ft 607 kts 323°
2026-05-04 20:37 -0.84838 -73.79569 35005 ft 601 kts 323°
2026-05-04 20:38 -0.77654 -73.83857 35000 ft 603 kts 324°
2026-05-04 20:38 -0.70426 -73.88156 35008 ft 604 kts 324°
2026-05-04 20:39 -0.63196 -73.92462 35000 ft 605 kts 323°
2026-05-04 20:39 -0.55971 -73.96771 35001 ft 606 kts 323°
2026-05-04 20:40 -0.48726 -74.01093 34997 ft 606 kts 323°
2026-05-04 20:40 -0.41491 -74.05409 35001 ft 606 kts 323°
2026-05-04 20:41 -0.34245 -74.09730 34997 ft 606 kts 323°
2026-05-04 20:41 -0.27002 -74.14050 34985 ft 606 kts 323°
2026-05-04 20:42 -0.19771 -74.18361 35000 ft 605 kts 323°
2026-05-04 20:42 -0.12549 -74.22668 35003 ft 605 kts 323°
2026-05-04 20:43 -0.06491 -74.26281 35000 ft 604 kts 323°
2026-05-04 20:43 0.00677 -74.30556 35002 ft 604 kts 323°
2026-05-04 20:44 0.07941 -74.34888 35001 ft 604 kts 323°
2026-05-04 20:44 0.15095 -74.39154 35005 ft 604 kts 323°
2026-05-04 20:45 0.22314 -74.43460 35001 ft 604 kts 323°
2026-05-04 20:45 0.29536 -74.47767 35004 ft 604 kts 323°
2026-05-04 20:46 0.36754 -74.52072 35003 ft 604 kts 323°
2026-05-04 20:46 0.43969 -74.56375 35004 ft 604 kts 323°
2026-05-04 20:47 0.51189 -74.60682 34997 ft 605 kts 323°
2026-05-04 20:47 0.58409 -74.64988 35002 ft 605 kts 323°
2026-05-04 20:48 0.65638 -74.69300 34986 ft 605 kts 323°
2026-05-04 20:48 0.72864 -74.73612 35010 ft 605 kts 323°
2026-05-04 20:49 0.80319 -74.77548 35004 ft 612 kts 336°
2026-05-04 20:49 0.88586 -74.79729 35007 ft 618 kts 351°
2026-05-04 20:50 0.97166 -74.80130 35012 ft 618 kts
2026-05-04 20:50 1.05722 -74.80146 34993 ft 619 kts
2026-05-04 20:51 1.14383 -74.80232 34998 ft 619 kts 360°
2026-05-04 20:51 1.22945 -74.80404 35004 ft 619 kts 359°
2026-05-04 20:52 1.31556 -74.80603 35007 ft 619 kts 359°
2026-05-04 20:52 1.40174 -74.80793 34997 ft 619 kts 359°
2026-05-04 20:53 1.48790 -74.80972 35004 ft 619 kts 359°
2026-05-04 20:53 1.57396 -74.81149 35002 ft 619 kts 359°
2026-05-04 20:54 1.66008 -74.81327 35007 ft 619 kts 359°
2026-05-04 20:54 1.74622 -74.81506 35003 ft 619 kts 359°
2026-05-04 20:55 1.83149 -74.81683 35003 ft 619 kts 359°
2026-05-04 20:55 1.91745 -74.81862 35008 ft 618 kts 359°
2026-05-04 20:56 2.00359 -74.82041 35005 ft 618 kts 359°
2026-05-04 20:56 2.08968 -74.82220 35002 ft 619 kts 359°
2026-05-04 20:57 2.17573 -74.82399 34987 ft 619 kts 359°
2026-05-04 20:57 2.26178 -74.82578 34990 ft 620 kts 360°
2026-05-04 20:58 2.34824 -74.82758 35001 ft 621 kts 359°
2026-05-04 20:58 2.43464 -74.82937 35000 ft 621 kts 359°
2026-05-04 20:59 2.52101 -74.83118 35014 ft 621 kts 359°
2026-05-04 20:59 2.60741 -74.83296 35002 ft 622 kts 359°
2026-05-04 21:00 2.69399 -74.83475 35017 ft 623 kts 359°
2026-05-04 21:00 2.78100 -74.83658 35001 ft 626 kts 359°
2026-05-04 21:01 2.86755 -74.83840 35006 ft 629 kts 359°
2026-05-04 21:01 2.95521 -74.84021 35018 ft 630 kts 359°
2026-05-04 21:02 3.04303 -74.84204 34979 ft 631 kts 359°
2026-05-04 21:02 3.13062 -74.84387 34986 ft 630 kts 359°
2026-05-04 21:03 3.21810 -74.84568 35029 ft 628 kts 359°
2026-05-04 21:03 3.30547 -74.84749 34963 ft 622 kts 359°
2026-05-04 21:04 3.34803 -74.84839 35000 ft 603 kts 359°
2026-05-04 21:04 3.38955 -74.84927 34990 ft 595 kts 359°
2026-05-04 21:04 3.47234 -74.85100 34998 ft 597 kts 359°
2026-05-04 21:05 3.55533 -74.85272 34875 ft 591 kts 359°
2026-05-04 21:05 3.59601 -74.85357 34190 ft 582 kts 359°
2026-05-04 21:05 3.63661 -74.85441 32948 ft 586 kts 359°
2026-05-04 21:06 3.67733 -74.85527 31892 ft 584 kts 359°
2026-05-04 21:06 3.71759 -74.85611 31131 ft 574 kts 359°
2026-05-04 21:06 3.75727 -74.85693 30422 ft 565 kts 359°
2026-05-04 21:06 3.79627 -74.85775 29683 ft 557 kts 359°
2026-05-04 21:07 3.83477 -74.85854 28883 ft 552 kts 359°
2026-05-04 21:07 3.87307 -74.85934 28107 ft 545 kts 359°
2026-05-04 21:07 3.91032 -74.86013 27612 ft 525 kts 359°
2026-05-04 21:07 3.94621 -74.86090 27152 ft 508 kts 359°
2026-05-04 21:08 3.98149 -74.86163 26740 ft 507 kts 359°
2026-05-04 21:08 4.01693 -74.86236 26305 ft 512 kts 359°
2026-05-04 21:08 4.05295 -74.86309 25862 ft 524 kts 359°
2026-05-04 21:08 4.08969 -74.86385 25381 ft 532 kts 359°
2026-05-04 21:09 4.12680 -74.86463 24877 ft 532 kts 359°
2026-05-04 21:09 4.16375 -74.86541 24376 ft 530 kts 359°
2026-05-04 21:09 4.19935 -74.86592 23038 ft 488 kts
2026-05-04 21:09 4.23181 -74.86349 22759 ft 450 kts
2026-05-04 21:10 4.26171 -74.85901 22540 ft 418 kts 12°
2026-05-04 21:10 4.28945 -74.85436 22379 ft 392 kts 12°
2026-05-04 21:10 4.31563 -74.85017 22157 ft 371 kts 11°
2026-05-04 21:10 4.34060 -74.84648 21772 ft 357 kts 11°
2026-05-04 21:11 4.36494 -74.84310 21222 ft 349 kts 11°
2026-05-04 21:11 4.38913 -74.83984 20998 ft 352 kts 10°
2026-05-04 21:11 4.41342 -74.83660 20865 ft 352 kts 10°
2026-05-04 21:11 4.43751 -74.83341 20860 ft 350 kts 10°
2026-05-04 21:12 4.46192 -74.83018 20767 ft 356 kts 10°
2026-05-04 21:12 4.48659 -74.82691 20359 ft 360 kts 10°
2026-05-04 21:12 4.51141 -74.82364 19979 ft 360 kts 10°
2026-05-04 21:12 4.53609 -74.82039 19748 ft 354 kts 10°
2026-05-04 21:13 4.56028 -74.81722 19594 ft 345 kts 10°
2026-05-04 21:13 4.58354 -74.81417 19105 ft 333 kts 10°
2026-05-04 21:13 4.60647 -74.81115 18356 ft 334 kts 10°
2026-05-04 21:13 4.62977 -74.80806 17828 ft 339 kts 10°
2026-05-04 21:14 4.65302 -74.80500 17564 ft 334 kts 10°
2026-05-04 21:14 4.67591 -74.80198 17287 ft 330 kts 10°
2026-05-04 21:14 4.69858 -74.79899 16939 ft 328 kts 10°
2026-05-04 21:14 4.72110 -74.79601 16672 ft 326 kts 10°
2026-05-04 21:15 4.74326 -74.79260 16669 ft 325 kts 18°
2026-05-04 21:15 4.76320 -74.78257 16674 ft 322 kts 43°
2026-05-04 21:15 4.77791 -74.76565 16509 ft 313 kts 62°
2026-05-04 21:15 4.78665 -74.74596 15962 ft 308 kts 70°
2026-05-04 21:16 4.79416 -74.72614 15570 ft 309 kts 70°
2026-05-04 21:16 4.80166 -74.70596 15155 ft 310 kts 70°
2026-05-04 21:16 4.80224 -74.70440 15118 ft 310 kts 70°
2026-05-04 21:17 4.80940 -74.68521 14762 ft 310 kts 70°
2026-05-04 21:17 4.81685 -74.66544 14432 ft 309 kts 70°
2026-05-04 21:17 4.82447 -74.64540 14130 ft 306 kts 70°
2026-05-04 21:17 4.83206 -74.62553 13804 ft 304 kts 70°
2026-05-04 21:18 4.83963 -74.60577 13449 ft 303 kts 70°
2026-05-04 21:18 4.84716 -74.58614 13121 ft 301 kts 70°
2026-05-04 21:18 4.85468 -74.56659 12785 ft 299 kts 70°
2026-05-04 21:18 4.86205 -74.54745 12681 ft 289 kts 70°
2026-05-04 21:19 4.86914 -74.52906 12668 ft 278 kts 70°
2026-05-04 21:19 4.87607 -74.51106 12684 ft 276 kts 70°
2026-05-04 21:19 4.88295 -74.49318 12672 ft 274 kts 70°
2026-05-04 21:19 4.88569 -74.48607 12687 ft 273 kts 70°
2026-05-04 21:20 4.89252 -74.46836 12684 ft 272 kts 70°
2026-05-04 21:20 4.89931 -74.45071 12684 ft 271 kts 70°
2026-05-04 21:20 4.90566 -74.43306 12698 ft 267 kts 80°
2026-05-04 21:20 4.90510 -74.41495 12735 ft 260 kts 109°
2026-05-04 21:21 4.89734 -74.39887 12751 ft 252 kts 120°
2026-05-04 21:21 4.88803 -74.38443 12812 ft 242 kts 123°
2026-05-04 21:21 4.87831 -74.37105 12777 ft 232 kts 125°
2026-05-04 21:21 4.86892 -74.35857 12831 ft 217 kts 126°
2026-05-04 21:22 4.86011 -74.34689 12789 ft 204 kts 125°
2026-05-04 21:22 4.85152 -74.33549 12526 ft 204 kts 126°
2026-05-04 21:22 4.84304 -74.32424 12344 ft 202 kts 125°
2026-05-04 21:22 4.83461 -74.31303 12078 ft 201 kts 126°
2026-05-04 21:23 4.82621 -74.30188 11834 ft 200 kts 126°
2026-05-04 21:23 4.81788 -74.29082 11589 ft 197 kts 126°
2026-05-04 21:23 4.80969 -74.27994 11359 ft 193 kts 125°
2026-05-04 21:23 4.80174 -74.26935 11128 ft 188 kts 126°
2026-05-04 21:24 4.79382 -74.25884 10933 ft 190 kts 126°
2026-05-04 21:24 4.78582 -74.24824 10724 ft 191 kts 126°
2026-05-04 21:24 4.77783 -74.23761 10497 ft 190 kts 125°
2026-05-04 21:24 4.76988 -74.22703 10273 ft 189 kts 126°
2026-05-04 21:25 4.76207 -74.21668 10076 ft 184 kts 126°
2026-05-04 21:25 4.75447 -74.20657 9800 ft 177 kts 126°
2026-05-04 21:25 4.74727 -74.19699 9575 ft 172 kts 126°
2026-05-04 21:25 4.74015 -74.18758 9324 ft 167 kts 126°
2026-05-04 21:26 4.73318 -74.17829 9100 ft 167 kts 126°
2026-05-04 21:26 4.72627 -74.16916 8842 ft 162 kts 126°
2026-05-04 21:26 4.71931 -74.15988 8619 ft 171 kts 124°
2026-05-04 21:26 4.71209 -74.15035 8384 ft 172 kts 123°
2026-05-04 21:27 4.70570 -74.14187 8372 ft 114 kts 128°
2026-05-04 21:27 4.70282 -74.13817 8370 ft 21 kts 128°
2026-05-04 21:27 4.70232 -74.13756 8370 ft 17 kts 131°
2026-05-04 21:27 4.70130 -74.13674 8371 ft 19 kts 148°
2026-05-04 21:28 4.70010 -74.13617 8371 ft 19 kts 156°
2026-05-04 21:28 4.69960 -74.13595 8371 ft 11 kts 156°
2026-05-04 21:28 4.69894 -74.13607 8371 ft 11 kts 237°
2026-05-04 21:28 4.69878 -74.13680 8371 ft 11 kts 258°
2026-05-04 21:29 4.69842 -74.13747 8371 ft 11 kts 253°
2026-05-04 21:29 4.69865 -74.13818 8371 ft 11 kts 303°
2026-05-04 21:29 4.69886 -74.13869 8371 ft 6 kts 257°
2026-05-04 21:29 4.69858 -74.13899 8371 ft 6 kts 220°
2026-05-04 21:30 4.69839 -74.13913 8371 ft 0 kts 216°